THAICOM 5 (29163 NORAD) Tracking and Keplerian Element Data

This shows tracking and keplerian element data for the satellite.

Feedback or suggestion? Click here.




ElementValue
Catalog29163
NameTHAICOM 5
Epoch Orbit5043
Epoch Day56.5109227
Epoch Year2020
RAAN103.5707
Inclination0.1699
Eccentricity0.0013697
Argument of Perigee116.1044
Mean Anonmoly196.0029
Mean Motion0.99449
Decay Rate2.8E-07
L11 29163U 06020B 20056.51092270 .00000028 00000-0 00000+0 0 9997
L22 29163 0.1699 103.5707 0013697 116.1044 196.0029 0.99449000 50438



Live tracking and technical data element details for THAICOM 5 (NORAD 29163). THAICOM 5 can be tracked NOW for your location showing map with azimuth and elevation plus other details from your city location.







IsCatalogInMostPopularTable: catalog: 29163, numindb: 300
Update: records affected: 1



GetName: 29163 THAICOM 5

Hit Count: updated at: Fri, 16 May 2025 11:48:52 GMT